Hourly Weather Roundup
Issued by NWS Central Illinois

Home | Current Version | Previous Version | Text Only | Print | Product List | Glossary On
Versions: 1 2 3 4 5 6 7 8 9 10 11 12 13 14 15 16 17 18 19 20 21 22 23 24 25 26 27 28 29 30 31 32 33 34 35 36 37 38 39 40 41 42 43 44 45 46 47 48 49 50
000
NZUS43 KILX 010810
HWRILX

AREA WEATHER ROUNDUP
NATIONAL WEATHER SERVICE, LINCOLN IL
200 AM CST SUN MAR 01 2015


CITY           SKY/WX    TMP DP  RH WIND       PRES   REMARKS
BLOOMINGTON    LGT SNOW  21  19  92 SE3       30.40F FOG
CHAMPAIGN      LGT SNOW  21  19  92 E6        30.39F VSB 3/4 WCI  13
DECATUR        LGT SNOW  22  20  92 E5        30.39F VSB 3/4 WCI  16
FLORA          LGT SNOW  26  25  98 CALM      30.40F VSB 3/4
GALESBURG      CLOUDY    19  17  94 CALM      30.40S
JACKSONVILLE   LGT SNOW  24  21  89 CALM      30.40S
LACON          CLOUDY    18  15  88 CALM      30.42S
LAWRENCEVILLE  FRZ RAIN  29  27  92 N3        30.40F FOG
LITCHFIELD     LGT SNOW  24  21  91 CALM      30.38F
$$


CITY           SKY/WX    TMP DP  RH WIND       PRES   REMARKS
LINCOLN        LGT SNOW  23  21  92 E3        30.43S
MACOMB         LGT RAIN  20  19  96 CALM      30.42F
MATTOON        LGT SNOW  24  21  88 N3        30.38F VSB 1
MT CARMEL AP   LGT RAIN  34  32  93 S5        30.39F WCI  30
OLNEY-NOBLE AP LGT SNOW  27  27 100 CALM      30.40F
PARIS          LGT SNOW  23  22  96 CALM      30.41S
PEORIA         CLOUDY    22  17  81 CALM      30.41S
PONTIAC        CLOUDY    20  18  93 SE5       30.41F WCI  13
RANTOUL        LGT SNOW  23  21  91 CALM      30.40F
ROBINSON       LGT SNOW  26  26  98 NE3       30.41F VSB 3/4
SPRINGFIELD    LGT SNOW  23  20  88 CALM      30.40F FOG
TAYLORVILLE    LGT SNOW  23  21  93 CALM      30.40F
$$

...REGIONAL REPORTS...


CITY           SKY/WX    TMP DP  RH WIND       PRES   REMARKS
CHICAGO O`HARE PTCLDY    16  13  88 S3        30.41F
KANKAKEE       CLOUDY    19  17  91 SE5       30.42F WCI  12
MOLINE         FAIR       3  -1  83 CALM      30.42S
MOUNT VERNON   CLOUDY    28  25  86 CALM      30.39F
PITTSFIELD     LGT SNOW  23  21  92 CALM      30.40S
QUINCY         LGT SNOW  21  18  88 E5        30.38S FOG     WCI  15
ROCKFORD       CLOUDY    11   7  84 CALM      30.43S FOG
$$


CITY           SKY/WX    TMP DP  RH WIND       PRES   REMARKS
BURLINGTON     CLOUDY    19  17  92 CALM      30.40S
CEDAR RAPIDS   FOG       10   8  92 S3        30.39S VSB 3/4
DES MOINES     FLURRIES  20  16  84 S7        30.37S WCI  11
KIRKSVILLE     LGT SNOW  20  19  96 CALM      30.38R FOG
OTTUMWA        CLOUDY    12   8  84 CALM      30.39F FOG
ST LOUIS       LGT SNOW  27  21  80 CALM      30.39S FOG
$$


CITY           SKY/WX    TMP DP  RH WIND       PRES   REMARKS
TERRE HAUTE    LGT SNOW  25  23  92 CALM      30.40F VSB 3/4
EVANSVILLE     CLOUDY    32  23  69 E3        30.42F
INDIANAPOLIS   LGT SNOW  23  20  88 SE3       30.38F VSB 3/4
LAFAYETTE      LGT SNOW  20  19  96 NE3       30.42F VSB 3/4
MADISON        CLOUDY    15  10  80 SW3       30.39F
MILWAUKEE      PTCLDY    15   9  76 SW3       30.42F
$$




USA.gov is the U.S. government's official web portal to all federal, state and local government web resources and services.